Date String (YYYY-MM-DD hh:mm:ss) UTC,Instrument flags,absolute air pressure of the measurement (hPa),sample flow rate (lpm),inlet stack bypass flow (lpm),air temperature of the measurement (°C),ambient temperature measured by the external sensor (°C),aerosol sample conditioner tube jacket temperature (°C),OPC LED temperature (°C),internal box temperature (°C),relative humidity of the measurement (%),span deviation,mass concentration of particles derived from Lorenz-Mie calculation of OPC scattering (μg/m³),mass concentration of particles derived from Lorenz-Mie calculation of OPC scattering (μg/m³),mass concentration of particles derived from Lorenz-Mie calculation of OPC scattering (μg/m³)
DateTimeUTC,F1_M11,P_M11,Q1_M11,Q2_M11,T1_M11,T2_M11,T3_M11,T4_M11,T5_M11,U1_M11,ZSPAN_M11,X0_M11,X2_M11,X1_M11
2023-09-01 13:00:00,SystemResetWarning,0830.3,5.00,000.00,028.3,026.9,000.0,036.7,029.9,17.4,0000.0,0005.33,0002.91,0002.16
2023-09-01 13:01:00,SystemResetWarning,0830.3,4.99,000.00,028.4,027.1,000.0,036.7,030.0,17.3,0000.0,0005.33,0002.92,0002.17
2023-09-01 13:02:00,SystemResetWarning,0830.3,5.00,000.00,028.4,027.2,000.0,036.8,030.0,17.3,0000.0,0004.95,0002.84,0002.16
2023-09-01 13:03:00,SystemResetWarning,0830.3,4.99,000.00,028.4,027.3,000.0,036.8,030.1,17.2,0000.0,0005.76,0002.85,0002.16
2023-09-01 13:04:00,SystemResetWarning,0830.2,5.00,000.00,028.5,027.4,000.0,036.8,030.1,17.2,0000.0,0006.87,0002.88,0002.16
2023-09-01 13:05:00,SystemResetWarning,0830.2,5.00,000.00,028.5,027.4,000.0,036.8,030.2,16.6,0000.0,0006.99,0002.90,0002.15
2023-09-01 13:06:00,SystemResetWarning,0830.2,5.01,000.00,028.5,027.5,000.0,036.8,030.2,15.8,0000.0,0007.04,0002.90,0002.15
2023-09-01 13:07:00,SystemResetWarning,0830.3,5.01,000.00,028.6,027.5,000.0,036.9,030.2,15.8,0000.0,0007.26,0002.95,0002.15
2023-09-01 13:08:00,SystemResetWarning,0830.3,4.99,000.00,028.6,027.6,000.0,036.9,030.2,16.0,0000.0,0007.06,0003.04,0002.16
2023-09-01 13:09:00,SystemResetWarning,0830.3,4.98,000.00,028.6,027.6,000.0,036.9,030.2,15.9,0000.0,0006.81,0002.98,0002.15
2023-09-01 13:10:00,SystemResetWarning,0830.2,5.00,000.00,028.6,026.9,000.0,036.9,030.1,15.9,0000.0,0006.85,0003.00,0002.17
2023-09-01 13:11:00,SystemResetWarning,0830.2,5.00,000.00,028.5,025.0,000.0,036.8,029.5,16.2,0000.0,0006.93,0003.02,0002.18
2023-09-01 13:12:00,SystemResetWarning,0830.1,5.01,000.00,028.4,024.3,000.0,036.7,029.4,16.5,0000.0,0007.03,0003.02,0002.16
2023-09-01 13:13:00,SystemResetWarning,0830.1,5.02,000.00,028.3,024.5,000.0,036.7,029.3,16.6,0000.0,0007.03,0003.02,0002.15
2023-09-01 13:14:00,SystemResetWarning,0830.2,4.98,000.00,028.2,024.9,000.0,036.7,029.4,17.0,0000.0,0006.79,0003.02,0002.13
2023-09-01 13:15:00,SystemResetWarning,0830.2,4.99,000.00,028.2,025.3,000.0,036.7,029.4,17.6,0000.0,0005.15,0002.97,0002.12
2023-09-01 13:16:00,SystemResetWarning,0830.2,5.00,000.00,028.1,025.6,000.0,036.7,029.5,17.9,0000.0,0005.01,0002.92,0002.11
2023-09-01 13:17:00,SystemResetWarning,0830.2,5.01,000.00,028.2,025.9,000.0,036.7,029.6,18.3,0000.0,0004.86,0002.89,0002.10
2023-09-01 13:18:00,SystemResetWarning,0830.2,5.01,000.00,028.2,026.2,000.0,036.7,029.7,18.6,0000.0,0004.63,0002.84,0002.09
2023-09-01 13:19:00,SystemResetWarning,0830.3,5.00,000.00,028.2,026.4,000.0,036.7,029.7,18.7,0000.0,0004.36,0002.73,0002.07
2023-09-01 13:20:00,SystemResetWarning,0830.3,5.00,000.00,028.2,026.6,000.0,036.7,029.8,18.6,0000.0,0004.52,0002.76,0002.07
2023-09-01 13:21:00,SystemResetWarning,0830.4,5.01,000.00,028.2,026.8,000.0,036.7,029.8,18.3,0000.0,0004.34,0002.71,0002.05
2023-09-01 13:22:00,SystemResetWarning,0830.4,5.00,000.00,028.3,027.0,000.0,036.7,029.9,18.0,0000.0,0004.28,0002.69,0002.03
2023-09-01 13:23:00,SystemResetWarning,0830.4,4.99,000.00,028.3,027.1,000.0,036.7,029.9,18.6,0000.0,0004.19,0002.68,0002.04
2023-09-01 13:24:00,SystemResetWarning,0830.4,4.99,000.00,028.3,027.2,000.0,036.7,030.0,18.7,0000.0,0004.23,0002.69,0002.03
2023-09-01 13:25:00,SystemResetWarning,0830.4,5.00,000.00,028.4,027.3,000.0,036.7,030.1,17.7,0000.0,0004.04,0002.64,0002.02
2023-09-01 13:26:00,SystemResetWarning,0830.5,5.01,000.00,028.4,027.4,000.0,036.8,030.1,17.7,0000.0,0004.17,0002.68,0002.01
2023-09-01 13:27:00,SystemResetWarning,0830.4,5.01,000.00,028.5,027.5,000.0,036.8,030.1,17.4,0000.0,0004.39,0002.74,0002.02
2023-09-01 13:28:00,SystemResetWarning,0830.4,5.01,000.00,028.5,027.5,000.0,036.8,030.2,17.0,0000.0,0004.41,0002.73,0002.02
2023-09-01 13:29:00,SystemResetWarning,0830.4,4.98,000.00,028.5,027.6,000.0,036.8,030.2,17.1,0000.0,0004.34,0002.69,0002.01
2023-09-01 13:30:00,SystemResetWarning,0830.4,5.00,000.00,028.6,027.6,000.0,036.9,030.2,17.4,0000.0,0004.34,0002.70,0002.01
2023-09-01 13:31:00,SystemResetWarning,0830.4,5.01,000.00,028.6,027.7,000.0,036.9,030.3,17.5,0000.0,0004.13,0002.67,0002.02
2023-09-01 13:32:00,SystemResetWarning,0830.4,5.00,000.00,028.6,026.8,000.0,036.9,030.1,17.6,0000.0,0004.17,0002.68,0002.01
2023-09-01 13:33:00,SystemResetWarning,0830.4,5.00,000.00,028.5,025.1,000.0,036.8,029.5,17.1,0000.0,0004.08,0002.64,0002.01
2023-09-01 13:34:00,SystemResetWarning,0830.4,5.01,000.00,028.4,024.6,000.0,036.7,029.4,17.1,0000.0,0003.96,0002.62,0002.01
2023-09-01 13:35:00,SystemResetWarning,0830.4,5.01,000.00,028.3,024.9,000.0,036.7,029.4,16.9,0000.0,0003.83,0002.59,0002.01
2023-09-01 13:36:00,SystemResetWarning,0830.4,4.99,000.00,028.2,025.2,000.0,036.7,029.4,17.1,0000.0,0003.99,0002.63,0002.01
2023-09-01 13:37:00,SystemResetWarning,0830.4,5.00,000.00,028.2,025.5,000.0,036.7,029.5,17.1,0000.0,0004.04,0002.64,0002.01
2023-09-01 13:38:00,SystemResetWarning,0830.6,5.00,000.00,028.2,025.9,000.0,036.7,029.6,17.0,0000.0,0003.87,0002.59,0002.01
2023-09-01 13:39:00,SystemResetWarning,0830.4,5.00,000.00,028.2,026.2,000.0,036.7,029.7,17.2,0000.0,0003.88,0002.58,0002.03
2023-09-01 13:40:00,SystemResetWarning,0830.4,5.00,000.00,028.2,026.4,000.0,036.7,029.8,17.2,0000.0,0003.91,0002.58,0002.03
2023-09-01 13:41:00,SystemResetWarning,0830.4,4.99,000.00,028.3,026.7,000.0,036.7,029.8,18.1,0000.0,0003.99,0002.61,0002.04
2023-09-01 13:42:00,SystemResetWarning,0830.4,5.00,000.00,028.3,026.8,000.0,036.7,029.9,18.6,0000.0,0003.98,0002.62,0002.03
2023-09-01 13:43:00,SystemResetWarning,0830.4,5.00,000.00,028.3,027.0,000.0,036.7,029.9,18.5,0000.0,0004.16,0002.63,0002.03
2023-09-01 13:44:00,SystemResetWarning,0830.6,5.00,000.00,028.4,027.1,000.0,036.8,030.0,18.2,0000.0,0004.47,0002.71,0002.03
2023-09-01 13:45:00,SystemResetWarning,0830.5,5.00,000.00,028.4,027.2,000.0,036.8,030.1,17.0,0000.0,0004.60,0002.72,0002.03
2023-09-01 13:46:00,SystemResetWarning,0830.8,5.00,000.00,028.4,027.3,000.0,036.8,030.1,17.1,0000.0,0004.81,0002.78,0002.03
2023-09-01 13:47:00,SystemResetWarning,0830.6,5.00,000.00,028.5,027.4,000.0,036.8,030.1,16.8,0000.0,0004.71,0002.75,0002.04
2023-09-01 13:48:00,SystemResetWarning,0830.4,5.00,000.00,028.5,027.5,000.0,036.8,030.2,16.9,0000.0,0004.69,0002.74,0002.06
2023-09-01 13:49:00,SystemResetWarning,0830.7,4.99,000.00,028.6,027.6,000.0,036.9,030.2,17.1,0000.0,0004.90,0002.74,0002.06
2023-09-01 13:50:00,SystemResetWarning,0830.5,4.98,000.00,028.6,027.0,000.0,036.8,030.1,17.5,0000.0,0005.36,0002.77,0002.06
2023-09-01 13:51:00,SystemResetWarning,0830.4,5.00,000.00,028.5,025.3,000.0,036.8,029.6,18.3,0000.0,0005.46,0002.80,0002.07
2023-09-01 13:52:00,SystemResetWarning,0830.4,5.00,000.00,028.3,024.7,000.0,036.7,029.5,18.6,0000.0,0005.48,0002.80,0002.07
2023-09-01 13:53:00,SystemResetWarning,0830.4,5.01,000.00,028.3,025.0,000.0,036.7,029.4,18.9,0000.0,0005.68,0002.82,0002.08
2023-09-01 13:54:00,SystemResetWarning,0830.5,4.99,000.00,028.2,025.3,000.0,036.7,029.5,19.5,0000.0,0005.76,0002.92,0002.10
2023-09-01 13:55:00,SystemResetWarning,0830.6,4.99,000.00,028.2,025.7,000.0,036.7,029.6,19.4,0000.0,0005.62,0002.90,0002.11
2023-09-01 13:56:00,SystemResetWarning,0830.6,5.01,000.00,028.2,026.0,000.0,036.7,029.7,19.4,0000.0,0005.77,0002.92,0002.13
2023-09-01 13:57:00,SystemResetWarning,0830.6,5.01,000.00,028.2,026.3,000.0,036.7,029.7,20.1,0000.0,0005.93,0002.95,0002.16
2023-09-01 13:58:00,SystemResetWarning,0830.7,5.00,000.00,028.3,026.5,000.0,036.7,029.8,20.5,0000.0,0006.33,0003.04,0002.19
2023-09-01 13:59:00,SystemResetWarning,0830.7,5.00,000.00,028.3,026.8,000.0,036.7,029.9,20.8,0000.0,0006.56,0003.10,0002.22
